User: anonymous   Login
Location: Chiroubles
(46.1812°N, 4.6660°E)
Time: 07:47:58
(UTC+00:00)
Language:

Cosmos 1814 Rocket - Orbit

View from above orbital plane
View from above orbital plane
View from above satellite
View from above satellite

Ground track
Ground track

The orbit data is extracted from the following two-line orbital elements,

1 17304U 87006B   20299.89123487 +.00000062 +00000-0 +29159-4 0  9998
2 17304 074.0602 355.7474 0030841 248.3885 111.3982 14.37706849769360
Epoch (UTC): 25 October 2020 21:23:22
Eccentricity: 0.0030841
inclination: 74.0602°
perigee height: 744 km
apogee height: 788 km
right ascension of ascending node: 355.7474°
argument of perigee: 248.3885°
revolutions per day: 14.37706849
mean anomaly at epoch: 111.3982°
orbit number at epoch: 76936

The dashed part of the orbit path shows where the satellite is in the earth's shadow,  

DLR